GFSFLT2_prec_cloud_099.txt.gz
Cloud_Cover
100 100 100 100 100 100 100 100 100 100 100 100 100 100 94 77 100 100 100 100 96 100 100 88 100 98 84
100 100 100 100 100 100 100 100 100 100 100 100 47 100 100 100 100 100 100 100 100 100 100 96 100 99 100
100 100 100 100 100 100 100 100 100 100 100 100 100 100 100 100 100 100 100 100 100 100 100 99 77 64 33
100 100 100 100 100 100 100 100 100 100 100 100 100 100 100 100 100 100 100 96 100 95 88 73 89 100 33
100 100 100 100 100 100 100 100 100 100 100 100 100 100 100 100 100 100 100 100 83 79 100 100 22 36 82
100 100 100 100 100 100 100 100 100 100 100 100 100 100 100 100 100 100 100 100 78 100 10 81 6 100 100
100 100 100 100 100 100 100 100 100 100 100 100 100 100 100 100 100 100 100 100 100 75 100 100 100 100 73
100 100 100 100 100 100 100 100 100 100 100 100 100 100 100 100 100 100 100 100 100 100 100 100 100 100 100
100 100 100 100 100 100 100 100 100 100 100 100 100 100 100 100 100 100 100 100 100 100 100 100 100 100 100
100 100 100 100 100 100 100 100 100 100 100 100 100 100 100 100 100 100 100 100 100 100 100 100 100 100 100
61 100 100 100 100 100 100 100 100 100 100 100 100 100 100 100 100 100 100 100 100 100 100 98 99 100 100
100 100 100 100 100 100 100 100 100 100 100 100 100 100 100 100 100 100 100 100 100 100 100 99 100 9 98
100 100 100 100 100 100 100 100 100 100 100 100 100 100 100 100 100 100 100 100 100 100 36 5 6 10 11
100 100 100 100 100 100 100 100 100 100 100 100 100 100 100 100 100 100 98 71 73 32 6 8 48 5 5
100 100 100 100 100 100 100 100 100 100 100 100 100 100 100 100 100 100 100 97 99 100 100 100 80 41 5
100 100 100 100 100 100 100 100 100 100 100 100 100 100 100 100 100 100 100 100 100 98 100 100 100 66 7
100 100 100 100 100 100 100 100 100 100 100 100 100 100 100 100 100 100 100 100 100 100 100 100 100 100 37

GFSFLT2_prec_cloud_102.txt.gz
Cloud_Cover
100 100 100 100 100 100 100 100 100 100 100 100 100 100 100 100 100 100 100 97 98 100 96 85 95 99 100
100 100 100 100 100 100 100 100 100 100 100 100 100 100 100 100 100 100 100 100 97 100 95 95 50 71 34
100 100 100 100 100 100 100 100 100 100 100 100 100 100 100 100 98 95 100 92 97 98 100 77 92 100 76
100 100 100 100 100 100 100 100 100 100 100 100 100 100 100 100 100 100 100 100 97 85 100 100 100 99 97
100 100 100 100 100 100 100 100 100 100 100 100 100 100 100 100 100 100 100 100 99 100 100 85 99 100 89
100 100 100 100 100 100 100 100 100 100 100 100 100 100 100 100 100 70 100 100 100 100 95 100 32 30 86
100 100 100 100 100 100 100 100 100 100 100 100 100 100 100 100 100 100 100 100 100 100 100 99 98 78 98
100 100 100 100 100 100 100 100 100 100 100 100 100 100 100 100 100 100 100 100 100 100 100 100 100 74 46
100 100 100 100 100 100 100 100 100 100 100 100 100 100 100 100 100 100 100 100 100 100 100 100 100 74 92
9 72 100 91 97 100 100 100 100 100 100 100 100 100 100 100 100 100 100 100 100 100 100 100 100 100 100
11 24 38 100 100 100 100 100 100 100 100 100 100 100 100 100 100 100 100 100 100 100 100 100 100 100 100
5 79 99 87 100 100 100 100 100 100 100 100 100 100 100 100 100 100 100 100 100 100 100 100 100 100 100
95 98 100 73 100 100 100 100 100 100 100 100 100 100 100 100 100 100 100 100 100 100 100 100 100 100 100
87 100 100 100 100 100 100 100 100 100 100 100 100 100 100 100 100 100 100 100 100 100 100 100 100 100 100
94 100 100 100 100 100 100 100 100 100 100 100 100 100 100 100 100 100 100 100 100 100 100 100 100 100 100
81 93 100 100 100 100 100 100 100 100 100 100 100 100 100 100 100 100 100 100 100 100 100 100 100 100 100
84 65 100 100 100 100 100 100 100 100 100 100 100 100 100 100 100 100 100 100 100 100 100 100 100 100 100

GFSFLT2_prec_cloud_105.txt.gz
Cloud_Cover
100 100 100 100 100 100 100 100 100 100 100 100 100 100 100 100 100 100 100 100 100 100 100 100 100 100 100
100 100 100 100 100 100 100 100 100 100 100 100 100 100 100 100 100 100 100 100 100 100 100 100 100 100 100
100 100 100 100 100 100 100 100 100 100 100 100 100 100 100 100 100 100 100 100 100 100 100 100 100 100 100
100 100 100 100 100 100 100 100 100 100 100 100 100 100 100 100 100 100 100 100 100 99 100 100 100 100 100
100 100 100 100 100 100 100 100 100 100 100 100 100 100 100 100 100 100 100 100 100 100 100 100 100 100 100
100 100 100 100 100 100 100 100 100 100 100 100 100 100 100 100 99 100 95 100 100 100 100 100 100 100 100
100 100 100 100 100 100 100 100 100 100 100 100 100 100 100 100 100 100 100 100 100 98 100 100 100 100 100
100 100 100 100 100 100 100 100 100 100 100 100 100 100 100 100 100 100 100 100 100 100 100 100 100 100 100
100 100 100 100 100 100 100 100 100 100 100 100 100 100 100 100 100 100 100 100 100 100 100 100 100 100 100
5 5 5 11 95 76 98 100 100 100 100 100 100 100 100 100 100 100 100 100 100 100 100 100 100 100 100
5 3 5 5 5 32 18 100 100 100 100 100 100 100 100 100 100 100 100 100 100 100 100 100 100 100 100
7 14 51 91 100 100 60 21 100 100 100 100 100 100 100 100 100 100 100 100 100 100 100 100 100 100 100
80 84 53 100 33 8 99 100 100 100 100 100 100 100 100 100 100 100 100 100 100 100 100 100 100 100 100
99 67 88 92 100 95 100 100 100 100 100 100 100 100 100 100 100 100 100 100 100 100 100 100 100 100 100
99 97 92 87 89 100 100 100 100 100 100 100 100 100 100 100 100 100 100 100 100 100 100 100 100 100 100
95 100 99 84 98 100 100 100 100 100 100 100 100 100 100 100 100 100 100 100 100 100 100 100 100 100 100
100 100 100 92 100 100 100 100 100 100 100 100 100 100 100 100 100 100 100 100 100 100 100 100 100 100 100

GFSFLT2_prec_cloud_111.txt.gz
Cloud_Cover
100 100 100 100 100 100 100 100 100 100 100 100 100 100 100 100 100 100 100 100 100 100 100 100 100 100 100
100 100 100 100 100 100 100 100 100 100 100 100 100 100 100 100 100 100 100 100 100 100 100 100 100 100 100
100 100 100 100 100 100 100 100 100 100 100 100 100 100 100 100 100 100 100 100 100 100 100 100 100 100 100
98 100 100 100 100 100 100 100 100 100 100 100 100 100 100 100 100 100 100 100 100 100 100 100 100 100 100
100 100 100 100 100 100 100 100 100 100 100 100 100 100 100 100 100 100 100 100 100 100 100 100 100 100 100
100 100 100 100 100 100 100 100 100 100 100 100 100 100 100 100 100 100 100 100 100 100 100 100 100 100 100
100 100 100 100 100 100 100 100 100 100 100 100 100 100 100 100 100 100 100 100 100 100 100 100 100 100 100
83 100 100 100 100 100 100 100 100 100 100 100 100 100 100 100 100 100 100 100 100 100 100 100 100 100 100
93 63 60 100 36 91 100 100 100 100 100 100 100 100 100 100 100 100 100 100 100 100 100 100 100 100 100
2 6 36 64 96 100 100 100 100 100 100 100 100 100 100 100 100 100 100 100 100 100 100 100 100 100 100
7 26 7 5 11 34 83 100 100 100 98 100 100 100 100 100 100 100 100 100 100 100 100 100 100 100 100
99 8 5 5 5 5 43 96 88 96 98 79 82 98 100 100 100 100 100 100 100 100 100 100 100 100 100
50 46 5 13 5 5 20 84 69 11 87 88 80 37 100 100 100 100 100 100 100 100 100 100 100 100 100
100 99 86 24 31 45 15 5 6 11 30 100 100 100 100 100 100 100 100 100 100 100 100 100 100 100 100
96 100 92 14 8 31 70 47 38 80 80 99 100 100 100 100 100 100 100 100 100 100 100 100 100 100 100
23 76 78 97 86 100 98 100 100 100 100 100 100 100 100 100 100 100 100 100 100 100 100 100 100 100 100
82 79 87 99 100 100 100 80 79 100 100 100 100 100 100 100 96 100 100 100 100 100 100 100 100 100 100

GFSFLT2_prec_cloud_114.txt.gz
Cloud_Cover
100 100 100 100 100 100 100 100 100 100 100 100 100 100 100 100 100 100 100 100 100 100 100 100 100 100 100
100 100 100 100 100 100 100 100 100 100 100 100 100 100 100 100 100 100 100 100 100 100 100 100 100 100 100
100 100 100 100 100 100 100 100 100 100 100 100 100 100 100 100 100 100 100 100 100 100 100 100 100 100 100
100 100 100 100 100 100 100 100 100 100 100 100 100 100 100 100 100 100 100 100 100 100 100 100 100 100 100
98 100 100 100 100 100 100 100 100 100 100 100 100 100 100 100 100 100 100 100 100 100 100 100 100 100 100
100 82 99 100 100 100 100 100 100 100 100 100 100 100 100 100 100 100 100 100 100 100 100 100 100 100 100
92 100 100 100 100 100 100 100 100 100 100 100 100 100 100 100 100 100 100 100 100 100 100 100 100 100 100
5 21 56 100 100 100 100 100 100 100 100 100 100 100 100 100 100 100 100 100 100 100 100 100 100 100 100
5 18 87 12 48 100 98 100 100 100 100 96 100 100 100 100 100 100 100 100 100 100 100 100 100 100 100
23 5 5 5 44 6 32 96 100 100 100 100 100 100 100 100 100 100 100 100 100 100 100 100 100 100 100
6 47 6 72 57 5 89 100 88 86 100 100 100 100 100 100 100 100 100 100 100 100 100 100 100 100 100
5 13 5 5 5 5 5 5 11 94 97 64 68 98 100 100 100 100 100 100 100 100 100 100 100 100 100
75 53 7 38 86 17 5 5 5 17 15 5 31 81 98 100 100 100 100 100 100 100 100 100 100 100 100
5 5 6 47 75 86 19 10 22 5 5 5 52 100 100 100 100 100 100 100 100 100 100 100 100 100 100
5 6 73 52 22 43 8 15 70 20 20 6 62 100 100 100 100 100 100 100 100 100 100 100 100 100 100
80 99 100 89 80 49 29 85 95 72 5 5 98 100 100 100 100 100 100 100 100 100 100 100 100 100 100
90 89 100 96 99 76 65 69 84 62 63 76 100 100 100 90 15 85 100 100 100 100 100 100 100 100 100

GFSFLT2_prec_cloud_117.txt.gz
Cloud_Cover
93 72 98 100 100 100 100 100 100 100 100 100 100 100 100 100 100 100 100 100 100 100 100 100 100 100 100
99 100 100 100 100 100 100 100 100 100 100 100 100 100 100 100 100 100 100 100 100 100 100 100 100 100 100
99 90 100 100 100 100 100 100 100 100 100 100 100 100 100 100 100 100 100 100 100 100 100 100 100 100 100
90 100 89 100 100 100 100 100 100 100 100 100 100 100 100 100 100 100 100 100 100 100 100 100 100 100 100
5 21 100 74 88 96 100 100 100 100 100 100 100 100 100 100 100 100 100 100 100 100 100 100 100 100 100
80 13 51 32 86 84 100 100 100 100 100 100 100 100 100 100 100 100 100 100 100 100 100 100 100 100 100
24 11 40 58 21 98 99 100 100 100 100 100 100 100 100 100 100 100 100 100 100 100 100 100 100 100 100
5 6 5 14 53 96 98 100 100 100 100 100 100 100 100 100 100 100 100 100 100 100 100 100 100 100 100
5 6 8 50 14 54 96 100 100 100 100 100 100 100 100 100 100 100 100 100 100 100 100 100 100 100 100
5 5 5 5 5 5 65 97 52 98 100 100 100 100 87 96 100 100 100 100 100 100 100 100 100 100 100
5 5 5 7 5 5 5 54 24 73 97 91 100 100 100 100 100 100 100 100 100 100 100 100 100 100 100
5 5 6 6 5 5 5 84 100 9 6 47 100 95 95 100 100 100 100 100 100 100 100 100 100 100 100
28 46 5 5 5 19 5 100 91 5 5 5 18 93 39 82 100 100 100 100 100 100 100 100 100 100 100
68 7 5 29 98 32 56 6 80 5 5 5 5 72 100 100 98 100 100 100 100 100 100 100 100 100 100
32 89 98 100 100 85 60 67 100 62 6 5 5 21 98 98 100 96 100 100 100 100 100 100 100 100 100
98 82 78 94 100 100 88 95 99 67 60 5 32 53 11 15 79 100 100 100 90 100 100 100 100 100 100
7 79 89 100 100 97 89 87 92 72 6 70 100 100 100 91 14 62 100 100 100 100 100 100 100 100 100

GFSFLT2_prec_cloud_120.txt.gz
Cloud_Cover
8 34 100 92 82 91 100 100 100 100 100 100 100 100 100 100 100 96 100 99 100 93 86 99 100 100 100
5 5 5 5 5 92 94 100 100 100 100 100 100 100 100 100 100 100 95 100 100 100 91 100 100 100 100
5 5 5 4 5 33 96 85 100 100 100 100 100 100 100 100 100 100 100 100 100 100 100 100 100 100 100
5 8 5 5 5 5 91 43 76 98 100 100 100 100 100 100 100 100 100 100 100 100 100 100 100 100 100
56 100 56 5 8 9 14 100 77 86 99 100 100 100 100 100 100 100 100 100 100 100 100 100 100 100 100
69 47 12 14 14 53 44 48 100 100 100 100 100 100 100 100 100 100 100 100 100 100 100 100 100 100 100
5 6 32 5 81 86 100 86 79 100 100 100 100 100 100 100 100 100 100 100 100 100 100 100 100 100 100
5 5 44 94 100 100 83 55 19 16 74 48 100 92 100 100 100 100 100 100 100 100 100 100 100 100 100
5 12 7 35 9 5 68 92 86 54 54 92 100 99 100 100 100 100 100 100 100 100 100 100 100 100 100
7 5 5 5 3 5 8 100 100 99 5 14 100 50 98 100 100 100 100 100 100 100 100 100 100 100 100
5 5 5 5 5 5 5 38 100 99 5 89 75 100 39 100 85 100 100 100 100 100 100 100 100 100 100
5 5 5 5 5 5 5 11 16 95 44 85 100 44 57 95 98 65 100 100 100 100 100 100 100 100 100
92 99 56 5 5 13 17 5 6 16 97 78 68 5 89 100 100 81 98 100 100 100 100 100 100 100 100
6 10 86 90 100 100 100 100 99 9 5 5 5 25 8 81 100 100 79 100 100 100 100 100 100 100 100
49 98 95 100 100 94 100 100 99 77 16 5 5 5 64 64 94 100 100 100 100 100 100 100 100 100 100
90 95 94 96 100 100 100 100 100 88 86 43 58 48 22 24 70 100 100 100 100 100 100 100 100 100 100
100 99 99 94 99 98 100 100 100 92 28 66 92 100 98 98 5 77 99 100 100 100 100 100 100 100 100

GFSFLT2_prec_cloud_123.txt.gz
Cloud_Cover
5 5 6 38 76 96 98 54 9 5 7 24 100 100 100 100 100 100 100 100 100 95 47 69 33 80 100
5 5 6 5 5 5 5 7 45 5 5 98 4 26 98 100 100 100 100 100 100 100 70 36 100 42 100
8 7 10 14 6 6 5 5 5 5 5 5 5 5 73 100 100 100 100 100 100 100 100 97 100 100 100
74 67 34 7 6 8 8 17 6 5 5 5 3 21 8 100 100 100 100 100 100 100 100 100 100 100 100
90 88 72 45 29 51 80 95 83 57 12 5 5 6 6 99 100 100 100 100 100 100 100 100 100 100 100
93 82 55 74 86 88 96 100 98 28 5 5 5 14 100 30 87 100 100 100 100 100 100 100 100 100 100
87 44 74 80 79 79 90 84 52 5 43 16 5 5 97 56 59 96 100 100 100 100 100 100 100 100 100
34 16 5 76 99 87 37 5 6 7 71 84 5 47 1 58 5 76 93 100 100 100 100 100 100 100 100
6 74 83 94 83 5 5 72 88 6 6 83 57 56 5 17 81 6 89 27 100 100 100 100 100 100 100
82 88 5 5 5 5 5 86 99 73 5 80 90 86 72 5 77 97 6 52 100 100 100 100 100 100 100
57 70 21 5 5 5 5 75 95 100 34 99 97 94 100 91 19 100 64 63 99 100 100 100 100 100 100
5 24 90 97 95 92 53 58 81 100 32 88 100 96 90 63 22 95 82 99 93 100 100 100 100 100 100
73 90 78 15 91 85 99 100 100 95 32 15 99 83 100 96 80 28 98 99 100 100 100 100 100 100 100
82 77 96 100 100 100 100 100 100 92 5 5 6 91 93 79 84 93 88 100 98 100 100 100 100 100 100
98 99 98 99 100 99 98 100 100 100 53 5 5 62 68 60 99 24 77 93 100 100 100 100 100 100 100
89 96 100 100 100 97 99 97 100 100 100 88 82 85 70 34 5 19 99 48 100 100 100 100 100 100 100
100 100 100 100 100 100 100 100 100 100 100 84 96 100 100 99 9 5 78 72 67 100 100 100 100 100 100

GFSFLT2_prec_cloud_129.txt.gz
Cloud_Cover
98 83 4 5 5 5 5 4 1 5 5 5 5 5 5 5 5 5 5 34 99 100 100 100 100 100 98
100 54 5 5 5 5 5 5 5 5 5 5 5 5 5 5 5 5 5 5 11 100 52 100 100 100 100
99 100 5 5 5 5 4 5 0 5 2 5 5 5 5 5 5 5 5 5 5 27 100 100 100 100 100
33 83 21 5 5 5 5 4 5 3 4 5 5 4 5 5 5 5 8 5 5 6 100 100 73 11 60
8 22 5 5 5 5 5 5 3 5 5 5 3 0 1 0 2 5 5 5 5 12 4 5 5 5 5
68 66 13 87 95 84 46 6 45 5 5 5 2 1 0 2 4 5 5 5 5 5 5 5 5 5 5
100 96 96 79 42 98 70 91 80 13 5 5 5 5 2 1 5 5 5 5 5 5 5 5 5 5 5
68 96 100 100 100 100 98 90 79 7 5 14 5 4 5 5 0 3 9 5 5 5 5 5 5 5 5
100 98 98 100 100 100 81 98 81 16 5 5 5 5 5 2 0 4 40 8 5 5 5 5 5 5 5
44 5 5 5 26 31 5 79 95 100 51 96 93 12 85 5 1 1 2 5 5 5 5 5 5 19 100
5 5 5 5 5 5 29 36 100 89 14 100 98 78 99 89 61 36 5 5 5 5 5 5 66 92 43
5 5 5 5 5 10 46 5 12 86 82 100 100 100 100 99 90 11 5 5 5 5 5 5 5 70 98
5 5 5 5 8 5 5 6 12 24 8 74 99 97 100 100 99 94 96 11 5 5 5 5 5 6 45
89 40 72 85 90 88 96 49 99 87 13 5 5 74 99 100 100 76 77 99 5 5 5 5 5 13 5
100 100 100 100 100 100 100 99 100 96 50 33 86 100 100 100 100 90 31 82 24 5 5 5 5 5 5
100 100 100 100 100 100 100 100 100 97 98 98 99 98 59 5 81 93 76 64 95 48 40 97 56 5 5
100 100 100 100 100 100 100 100 100 100 100 100 100 100 100 98 8 8 99 5 53 9 6 72 99 34 65

GFSFLT2_prec_cloud_135.txt.gz
Cloud_Cover
72 5 42 91 52 4 0 0 0 5 5 5 5 77 85 53 26 5 5 5 5 5 5 5 5 100 18
87 66 52 100 33 4 0 5 6 53 70 100 97 30 12 7 17 7 5 5 5 5 5 5 5 4 5
100 100 100 8 5 3 0 5 7 100 100 100 100 88 20 22 5 5 6 5 5 5 5 5 5 5 5
100 100 85 7 5 4 5 5 29 100 100 100 100 100 100 100 98 46 8 5 5 4 3 5 5 5 5
57 17 72 5 5 5 5 58 99 99 100 99 13 75 34 100 96 15 5 5 5 62 5 5 5 4 5
53 5 7 48 6 5 50 100 100 100 100 100 100 100 99 15 5 5 5 5 44 5 5 38 82 78 25
84 40 49 40 90 60 100 100 100 100 100 100 72 96 5 5 3 5 5 5 5 8 93 76 100 92 91
42 67 68 82 96 100 100 100 100 100 98 100 87 11 5 5 0 4 5 5 9 13 17 50 18 5 64
100 91 90 88 98 100 100 78 100 100 78 7 5 5 5 5 0 0 5 5 5 5 5 5 12 24 54
100 90 100 100 100 100 77 98 89 68 18 54 81 99 85 6 5 4 0 0 5 5 9 5 5 5 5
100 100 100 99 77 94 100 53 30 12 5 85 99 81 100 93 37 12 5 5 3 3 5 5 5 17 58
100 100 100 100 100 99 74 9 37 15 5 5 77 18 92 100 99 32 30 5 5 5 5 5 5 5 6
100 100 100 100 100 100 20 5 5 5 5 5 6 14 97 100 98 96 98 35 74 8 5 5 5 5 9
100 100 100 100 99 91 88 66 55 49 5 5 5 20 94 87 89 97 100 100 44 82 5 5 10 59 85
100 100 100 99 100 100 98 96 93 92 70 5 5 5 5 10 97 98 94 96 73 48 64 97 95 96 96
100 100 97 100 96 96 89 98 99 100 98 94 74 78 71 65 98 97 93 94 37 72 100 100 92 94 72
100 100 100 100 100 99 71 82 99 99 89 98 100 100 100 95 100 100 98 99 21 99 100 100 100 100 76

GFSFLT2_prec_cloud_138.txt.gz
Cloud_Cover
31 9 80 8 20 62 5 5 5 7 99 94 5 5 6 84 76 38 5 5 5 39 100 100 100 100 96
5 0 0 0 3 4 73 92 99 97 5 5 5 5 8 48 89 5 5 5 5 5 5 82 100 100 100
81 65 15 3 2 2 0 0 1 0 1 0 5 5 10 5 5 93 100 69 58 7 5 5 2 26 80
75 44 77 84 80 99 61 5 5 5 3 5 5 19 66 59 64 66 100 100 100 74 10 88 28 5 5
5 5 5 5 6 20 6 27 43 7 5 5 13 90 100 100 100 100 100 100 97 98 100 52 5 5 4
5 5 5 15 12 5 5 5 100 100 100 100 28 56 74 100 100 100 100 100 100 100 100 66 46 100 99
7 5 27 77 80 83 80 100 100 100 100 100 57 100 100 100 100 100 100 100 99 27 27 83 41 37 7
5 82 100 100 100 100 100 100 100 100 86 100 100 100 100 100 96 38 14 5 5 5 5 5 5 5 5
97 100 100 100 100 100 100 100 100 100 100 100 100 100 100 100 100 49 5 5 3 5 5 5 5 26 54
75 84 82 72 100 95 100 100 100 100 100 98 100 100 100 100 100 12 5 1 5 5 5 5 5 5 5
100 100 100 100 100 99 100 100 100 100 98 58 98 60 95 100 97 5 5 5 3 4 5 5 5 12 23
100 100 100 100 98 100 100 100 100 90 56 5 82 31 68 100 100 33 5 28 5 5 5 5 19 5 10
100 100 100 99 100 100 100 55 68 48 6 5 24 7 68 100 100 99 100 88 5 5 5 5 5 5 9
100 100 100 100 100 100 100 94 94 24 5 5 5 21 97 100 100 100 100 99 14 7 5 12 8 5 5
100 100 100 100 100 100 100 100 99 90 53 13 5 5 50 93 100 98 100 90 63 56 66 99 78 38 28
100 100 100 100 100 100 100 100 100 90 70 5 7 80 93 58 84 100 100 95 83 89 76 94 92 100 100
100 100 100 100 100 100 95 100 99 99 57 5 70 100 100 91 5 81 11 6 5 81 35 99 100 100 76

GFSFLT2_prec_cloud_141.txt.gz
Cloud_Cover
0 0 0 0 0 2 3 0 0 0 5 5 5 5 5 6 60 88 85 5 18 8 5 13 6 5 6
2 5 2 4 2 5 6 21 25 4 4 5 5 5 5 34 94 8 5 5 3 5 5 5 20 14 14
2 0 0 0 2 3 4 5 27 2 2 5 5 5 6 90 24 5 5 2 5 5 6 56 100 100 90
1 3 5 5 4 5 5 5 5 0 1 5 5 5 5 5 5 5 5 5 17 100 100 100 100 100 100
6 5 5 5 5 5 5 5 5 5 5 5 5 92 100 6 5 5 5 5 5 96 100 100 100 100 100
5 5 67 5 7 5 19 39 82 100 94 99 71 74 70 31 100 100 100 25 5 75 100 100 100 100 100
22 96 51 82 42 100 20 11 95 100 90 100 79 42 84 97 100 71 100 100 100 100 98 100 100 100 100
5 95 100 94 78 92 5 77 100 100 91 97 94 85 61 71 87 100 100 100 100 100 100 100 100 100 100
82 56 45 72 73 93 98 100 100 100 100 20 87 99 100 100 100 100 100 100 100 100 100 92 100 100 100
100 62 75 86 95 85 98 100 100 100 100 7 100 100 100 100 100 98 84 10 14 15 5 6 5 5 5
100 100 100 99 100 100 100 100 100 100 100 98 100 100 100 100 100 51 38 40 13 5 5 5 5 5 21
100 100 100 100 100 87 91 79 100 100 98 33 100 100 100 100 100 100 89 6 5 5 5 5 5 7 6
99 100 100 100 98 72 93 71 92 100 100 68 100 100 100 100 100 98 95 16 20 12 5 5 5 5 5
69 91 100 100 90 100 92 75 92 100 72 100 97 84 100 100 100 100 100 100 44 52 10 31 56 49 37
93 95 100 98 100 100 100 100 100 100 97 55 25 62 21 88 100 100 99 88 93 96 95 98 90 43 5
85 90 98 100 100 99 100 97 100 100 100 85 70 88 98 77 82 100 95 100 73 70 82 97 90 82 24
83 89 100 100 100 100 98 100 100 100 100 7 92 97 100 100 8 4 15 7 6 50 60 96 99 58 5

GFSFLT2_prec_cloud_144.txt.gz
Cloud_Cover
0 0 0 0 0 0 0 0 0 5 5 5 5 5 14 5 5 100 100 100 21 8 20 35 38 22 67
5 5 0 0 0 0 0 0 0 0 4 5 5 5 7 98 60 80 71 62 25 5 5 5 16 16 76
5 5 5 0 2 5 5 5 0 0 4 4 5 5 5 6 76 93 99 97 40 7 5 5 5 8 100
5 5 5 11 5 5 5 5 5 0 0 3 5 5 5 5 5 5 5 5 5 26 30 9 9 59 43
43 40 5 57 31 5 5 5 5 19 28 5 5 5 4 4 5 5 5 19 100 97 79 25 91 91 45
99 17 74 83 35 5 5 35 23 100 5 83 8 5 5 8 5 5 5 37 100 100 94 94 59 82 55
59 11 71 100 39 30 64 5 47 11 15 82 68 6 5 38 74 84 100 98 100 100 100 100 100 100 98
92 58 41 100 96 50 22 5 10 81 85 100 25 5 5 6 5 10 5 100 100 100 100 100 100 100 100
98 62 5 24 75 55 29 76 100 100 94 99 58 10 50 80 5 20 8 55 93 100 100 100 100 100 100
97 85 97 99 83 79 92 100 98 100 100 84 6 15 90 100 40 92 100 99 100 100 100 100 100 100 100
74 98 100 100 62 99 99 94 95 99 100 100 95 89 100 100 93 23 5 9 57 70 52 62 68 62 73
72 20 94 95 84 93 100 98 90 79 100 100 100 98 73 100 100 32 10 32 27 13 18 14 10 9 14
55 46 100 96 86 100 100 96 96 100 97 69 97 67 100 100 100 100 95 20 5 5 5 5 5 5 5
72 62 73 88 98 97 100 77 72 100 93 58 60 99 100 100 100 100 100 99 22 16 15 14 9 6 5
86 94 95 96 82 93 97 80 95 100 100 72 88 100 100 100 100 100 100 98 96 89 90 98 96 89 37
92 98 100 88 86 92 98 85 92 100 100 54 72 92 98 97 84 100 100 100 89 71 63 91 88 41 5
98 100 100 94 100 100 100 88 96 100 100 97 100 100 100 100 6 8 66 67 93 96 96 97 97 45 5